Year,Month,Day,Hour,Minute,Value (Times are PST for insolation in W/m^2)
2010,10,05,00,00,0.00
2010,10,05,00,01,0.00
2010,10,05,00,02,0.00
2010,10,05,00,03,0.00
2010,10,05,00,04,0.00
2010,10,05,00,05,0.00
2010,10,05,00,06,0.00
2010,10,05,00,07,0.00
2010,10,05,00,08,0.00
2010,10,05,00,09,0.00
2010,10,05,00,10,0.00
2010,10,05,00,11,0.00
2010,10,05,00,12,0.00
2010,10,05,00,13,0.00
2010,10,05,00,14,0.00
2010,10,05,00,15,0.00
2010,10,05,00,16,0.00
2010,10,05,00,17,0.00
2010,10,05,00,18,0.00
2010,10,05,00,19,0.00
2010,10,05,00,20,0.00
2010,10,05,00,21,0.00
2010,10,05,00,22,0.00
2010,10,05,00,23,0.00
2010,10,05,00,24,0.00
2010,10,05,00,25,0.00
2010,10,05,00,26,0.00
2010,10,05,00,27,0.00
2010,10,05,00,28,0.00
2010,10,05,00,29,0.00
2010,10,05,00,30,0.00
2010,10,05,00,31,0.00
2010,10,05,00,32,0.00
2010,10,05,00,33,0.00
2010,10,05,00,34,0.00
2010,10,05,00,35,0.00
2010,10,05,00,36,0.00
2010,10,05,00,37,0.00
2010,10,05,00,38,0.00
2010,10,05,00,39,0.00
2010,10,05,00,40,0.00
2010,10,05,00,41,0.00
2010,10,05,00,42,0.00
2010,10,05,00,43,0.00
2010,10,05,00,44,0.00
2010,10,05,00,45,0.00
2010,10,05,00,46,0.00
2010,10,05,00,47,0.00
2010,10,05,00,48,0.00
2010,10,05,00,49,0.00
2010,10,05,00,50,0.00
2010,10,05,00,51,0.00
2010,10,05,00,52,0.00
2010,10,05,00,53,0.00
2010,10,05,00,54,0.00
2010,10,05,00,55,0.00
2010,10,05,00,56,0.00
2010,10,05,00,57,0.00
2010,10,05,00,58,0.00
2010,10,05,00,59,0.00
2010,10,05,01,00,0.00
2010,10,05,01,01,0.00
2010,10,05,01,02,0.00
2010,10,05,01,03,0.00
2010,10,05,01,04,0.00
2010,10,05,01,05,0.00
2010,10,05,01,06,0.00
2010,10,05,01,07,0.00
2010,10,05,01,08,0.00
2010,10,05,01,09,0.00
2010,10,05,01,10,0.00
2010,10,05,01,11,0.00
2010,10,05,01,12,0.00
2010,10,05,01,13,0.00
2010,10,05,01,14,0.00
2010,10,05,01,15,0.00
2010,10,05,01,16,0.00
2010,10,05,01,17,0.00
2010,10,05,01,18,0.00
2010,10,05,01,19,0.00
2010,10,05,01,20,0.00
2010,10,05,01,21,0.00
2010,10,05,01,22,0.00
2010,10,05,01,23,0.00
2010,10,05,01,24,0.00
2010,10,05,01,25,0.00
2010,10,05,01,26,0.00
2010,10,05,01,27,0.00
2010,10,05,01,28,0.00
2010,10,05,01,29,0.00
2010,10,05,01,30,0.00
2010,10,05,01,31,0.00
2010,10,05,01,32,0.00
2010,10,05,01,33,0.00
2010,10,05,01,34,0.00
2010,10,05,01,35,0.00
2010,10,05,01,36,0.00
2010,10,05,01,37,0.00
2010,10,05,01,38,0.00
2010,10,05,01,39,0.00
2010,10,05,01,40,0.00
2010,10,05,01,41,0.00
2010,10,05,01,42,0.00
2010,10,05,01,43,0.00
2010,10,05,01,44,0.00
2010,10,05,01,45,0.00
2010,10,05,01,46,0.00
2010,10,05,01,47,0.00
2010,10,05,01,48,0.00
2010,10,05,01,49,0.00
2010,10,05,01,50,0.00
2010,10,05,01,51,0.00
2010,10,05,01,52,0.00
2010,10,05,01,53,0.00
2010,10,05,01,54,0.00
2010,10,05,01,55,0.00
2010,10,05,01,56,0.00
2010,10,05,01,57,0.00
2010,10,05,01,58,0.00
2010,10,05,01,59,0.00
2010,10,05,02,00,0.00
2010,10,05,02,01,0.00
2010,10,05,02,02,0.00
2010,10,05,02,03,0.00
2010,10,05,02,04,0.00
2010,10,05,02,05,0.00
2010,10,05,02,06,0.00
2010,10,05,02,07,0.00
2010,10,05,02,08,0.00
2010,10,05,02,09,0.00
2010,10,05,02,10,0.00
2010,10,05,02,11,0.00
2010,10,05,02,12,0.00
2010,10,05,02,13,0.00
2010,10,05,02,14,0.00
2010,10,05,02,15,0.00
2010,10,05,02,16,0.00
2010,10,05,02,17,0.00
2010,10,05,02,18,0.00
2010,10,05,02,19,0.00
2010,10,05,02,20,0.00
2010,10,05,02,21,0.00
2010,10,05,02,22,0.00
2010,10,05,02,23,0.00
2010,10,05,02,24,0.00
2010,10,05,02,25,0.00
2010,10,05,02,26,0.00
2010,10,05,02,27,0.00
2010,10,05,02,28,0.00
2010,10,05,02,29,0.00
2010,10,05,02,30,0.00
2010,10,05,02,31,0.00
2010,10,05,02,32,0.00
2010,10,05,02,33,0.00
2010,10,05,02,34,0.00
2010,10,05,02,35,0.00
2010,10,05,02,36,0.00
2010,10,05,02,37,0.00
2010,10,05,02,38,0.00
2010,10,05,02,39,0.00
2010,10,05,02,40,0.00
2010,10,05,02,41,0.00
2010,10,05,02,42,0.00
2010,10,05,02,43,0.00
2010,10,05,02,44,0.00
2010,10,05,02,45,0.00
2010,10,05,02,46,0.00
2010,10,05,02,47,0.00
2010,10,05,02,48,0.00
2010,10,05,02,49,0.00
2010,10,05,02,50,0.00
2010,10,05,02,51,0.00
2010,10,05,02,52,0.00
2010,10,05,02,53,0.00
2010,10,05,02,54,0.00
2010,10,05,02,55,0.00
2010,10,05,02,56,0.00
2010,10,05,02,57,0.00
2010,10,05,02,58,0.00
2010,10,05,02,59,0.00
2010,10,05,03,00,0.00
2010,10,05,03,01,0.00
2010,10,05,03,02,0.00
2010,10,05,03,03,0.00
2010,10,05,03,04,0.00
2010,10,05,03,05,0.00
2010,10,05,03,06,0.00
2010,10,05,03,07,0.00
2010,10,05,03,08,0.00
2010,10,05,03,09,0.00
2010,10,05,03,10,0.00
2010,10,05,03,11,0.00
2010,10,05,03,12,0.00
2010,10,05,03,13,0.00
2010,10,05,03,14,0.00
2010,10,05,03,15,0.00
2010,10,05,03,16,0.00
2010,10,05,03,17,0.00
2010,10,05,03,18,0.00
2010,10,05,03,19,0.00
2010,10,05,03,20,0.00
2010,10,05,03,21,0.00
2010,10,05,03,22,0.00
2010,10,05,03,23,0.00
2010,10,05,03,24,0.00
2010,10,05,03,25,0.00
2010,10,05,03,26,0.00
2010,10,05,03,27,0.00
2010,10,05,03,28,0.00
2010,10,05,03,29,0.00
2010,10,05,03,30,0.00
2010,10,05,03,31,0.00
2010,10,05,03,32,0.00
2010,10,05,03,33,0.00
2010,10,05,03,34,0.00
2010,10,05,03,35,0.00
2010,10,05,03,36,0.00
2010,10,05,03,37,0.00
2010,10,05,03,38,0.00
2010,10,05,03,39,0.00
2010,10,05,03,40,0.00
2010,10,05,03,41,0.00
2010,10,05,03,42,0.00
2010,10,05,03,43,0.00
2010,10,05,03,44,0.00
2010,10,05,03,45,0.00
2010,10,05,03,46,0.00
2010,10,05,03,47,0.00
2010,10,05,03,48,0.00
2010,10,05,03,49,0.00
2010,10,05,03,50,0.00
2010,10,05,03,51,0.00
2010,10,05,03,52,0.00
2010,10,05,03,53,0.00
2010,10,05,03,54,0.00
2010,10,05,03,55,0.00
2010,10,05,03,56,0.00
2010,10,05,03,57,0.00
2010,10,05,03,58,0.00
2010,10,05,03,59,0.00
2010,10,05,04,00,0.00
2010,10,05,04,01,0.00
2010,10,05,04,02,0.00
2010,10,05,04,03,0.00
2010,10,05,04,04,0.00
2010,10,05,04,05,0.00
2010,10,05,04,06,0.00
2010,10,05,04,07,0.00
2010,10,05,04,08,0.00
2010,10,05,04,09,0.00
2010,10,05,04,10,0.00
2010,10,05,04,11,0.00
2010,10,05,04,12,0.00
2010,10,05,04,13,0.00
2010,10,05,04,14,0.00
2010,10,05,04,15,0.00
2010,10,05,04,16,0.00
2010,10,05,04,17,0.00
2010,10,05,04,18,0.00
2010,10,05,04,19,0.00
2010,10,05,04,20,0.00
2010,10,05,04,21,0.00
2010,10,05,04,22,0.00
2010,10,05,04,23,0.00
2010,10,05,04,24,0.00
2010,10,05,04,25,0.00
2010,10,05,04,26,0.00
2010,10,05,04,27,0.00
2010,10,05,04,28,0.00
2010,10,05,04,29,0.00
2010,10,05,04,30,0.00
2010,10,05,04,31,0.00
2010,10,05,04,32,0.00
2010,10,05,04,33,0.00
2010,10,05,04,34,0.00
2010,10,05,04,35,0.00
2010,10,05,04,36,0.00
2010,10,05,04,37,0.00
2010,10,05,04,38,0.00
2010,10,05,04,39,0.00
2010,10,05,04,40,0.00
2010,10,05,04,41,0.00
2010,10,05,04,42,0.00
2010,10,05,04,43,0.00
2010,10,05,04,44,0.00
2010,10,05,04,45,0.00
2010,10,05,04,46,0.00
2010,10,05,04,47,0.00
2010,10,05,04,48,0.00
2010,10,05,04,49,0.00
2010,10,05,04,50,0.00
2010,10,05,04,51,0.00
2010,10,05,04,52,0.00
2010,10,05,04,53,0.00
2010,10,05,04,54,0.00
2010,10,05,04,55,0.00
2010,10,05,04,56,0.00
2010,10,05,04,57,0.00
2010,10,05,04,58,0.00
2010,10,05,04,59,0.00
2010,10,05,05,00,0.00
2010,10,05,05,01,0.00
2010,10,05,05,02,0.00
2010,10,05,05,03,0.00
2010,10,05,05,04,0.00
2010,10,05,05,05,0.00
2010,10,05,05,06,0.00
2010,10,05,05,07,0.00
2010,10,05,05,08,0.00
2010,10,05,05,09,0.00
2010,10,05,05,10,0.00
2010,10,05,05,11,0.00
2010,10,05,05,12,0.00
2010,10,05,05,13,0.00
2010,10,05,05,14,0.00
2010,10,05,05,15,0.00
2010,10,05,05,16,0.00
2010,10,05,05,17,0.00
2010,10,05,05,18,0.00
2010,10,05,05,19,0.00
2010,10,05,05,20,0.00
2010,10,05,05,21,0.00
2010,10,05,05,22,0.00
2010,10,05,05,23,0.00
2010,10,05,05,24,0.00
2010,10,05,05,25,0.00
2010,10,05,05,26,0.00
2010,10,05,05,27,0.00
2010,10,05,05,28,0.00
2010,10,05,05,29,0.00
2010,10,05,05,30,0.00
2010,10,05,05,31,0.00
2010,10,05,05,32,0.00
2010,10,05,05,33,0.00
2010,10,05,05,34,0.00
2010,10,05,05,35,0.00
2010,10,05,05,36,0.00
2010,10,05,05,37,0.00
2010,10,05,05,38,0.00
2010,10,05,05,39,0.00
2010,10,05,05,40,0.00
2010,10,05,05,41,0.00
2010,10,05,05,42,0.00
2010,10,05,05,43,0.00
2010,10,05,05,44,0.00
2010,10,05,05,45,0.00
2010,10,05,05,46,0.00
2010,10,05,05,47,0.00
2010,10,05,05,48,0.00
2010,10,05,05,49,0.00
2010,10,05,05,50,0.00
2010,10,05,05,51,0.00
2010,10,05,05,52,0.00
2010,10,05,05,53,0.00
2010,10,05,05,54,0.00
2010,10,05,05,55,0.00
2010,10,05,05,56,0.00
2010,10,05,05,57,0.00
2010,10,05,05,58,0.00
2010,10,05,05,59,0.00
2010,10,05,06,00,0.00
2010,10,05,06,01,0.00
2010,10,05,06,02,0.00
2010,10,05,06,03,0.00
2010,10,05,06,04,0.00
2010,10,05,06,05,0.00
2010,10,05,06,06,0.00
2010,10,05,06,07,0.00
2010,10,05,06,08,0.00
2010,10,05,06,09,0.00
2010,10,05,06,10,0.00
2010,10,05,06,11,0.00
2010,10,05,06,12,0.00
2010,10,05,06,13,0.00
2010,10,05,06,14,0.00
2010,10,05,06,15,0.00
2010,10,05,06,16,0.00
2010,10,05,06,17,0.00
2010,10,05,06,18,0.00
2010,10,05,06,19,0.00
2010,10,05,06,20,0.00
2010,10,05,06,21,0.00
2010,10,05,06,22,0.00
2010,10,05,06,23,0.00
2010,10,05,06,24,0.00
2010,10,05,06,25,0.00
2010,10,05,06,26,0.00
2010,10,05,06,27,0.00
2010,10,05,06,28,0.00
2010,10,05,06,29,0.00
2010,10,05,06,30,0.00
2010,10,05,06,31,0.00
2010,10,05,06,32,0.00
2010,10,05,06,33,0.00
2010,10,05,06,34,0.00
2010,10,05,06,35,0.00
2010,10,05,06,36,0.00
2010,10,05,06,37,0.00
2010,10,05,06,38,0.00
2010,10,05,06,39,0.00
2010,10,05,06,40,0.00
2010,10,05,06,41,0.00
2010,10,05,06,42,0.00
2010,10,05,06,43,0.00
2010,10,05,06,44,0.00
2010,10,05,06,45,0.00
2010,10,05,06,46,0.00
2010,10,05,06,47,0.00
2010,10,05,06,48,0.00
2010,10,05,06,49,0.00
2010,10,05,06,50,0.00
2010,10,05,06,51,0.00
2010,10,05,06,52,0.00
2010,10,05,06,53,0.00
2010,10,05,06,54,0.00
2010,10,05,06,55,0.00
2010,10,05,06,56,0.00
2010,10,05,06,57,0.00
2010,10,05,06,58,0.00
2010,10,05,06,59,0.00
2010,10,05,07,00,0.00
2010,10,05,07,01,0.00
2010,10,05,07,02,0.00
2010,10,05,07,03,0.00
2010,10,05,07,04,0.00
2010,10,05,07,05,0.00
2010,10,05,07,06,0.00
2010,10,05,07,07,0.00
2010,10,05,07,08,0.00
2010,10,05,07,09,0.00
2010,10,05,07,10,0.00
2010,10,05,07,11,0.00
2010,10,05,07,12,0.00
2010,10,05,07,13,0.00
2010,10,05,07,14,0.00
2010,10,05,07,15,0.00
2010,10,05,07,16,0.00
2010,10,05,07,17,0.00
2010,10,05,07,18,0.00
2010,10,05,07,19,0.00
2010,10,05,07,20,0.00
2010,10,05,07,21,0.00
2010,10,05,07,22,0.00
2010,10,05,07,23,0.00
2010,10,05,07,24,0.00
2010,10,05,07,25,0.30
2010,10,05,07,26,5.00
2010,10,05,07,27,5.00
2010,10,05,07,28,5.00
2010,10,05,07,29,5.00
2010,10,05,07,30,5.10
2010,10,05,07,31,7.00
2010,10,05,07,32,7.00
2010,10,05,07,33,7.00
2010,10,05,07,34,9.10
2010,10,05,07,35,11.10
2010,10,05,07,36,12.00
2010,10,05,07,37,12.00
2010,10,05,07,38,12.10
2010,10,05,07,39,14.10
2010,10,05,07,40,15.90
2010,10,05,07,41,14.00
2010,10,05,07,42,14.10
2010,10,05,07,43,16.10
2010,10,05,07,44,18.20
2010,10,05,07,45,21.40
2010,10,05,07,46,28.40
2010,10,05,07,47,35.30
2010,10,05,07,48,39.70
2010,10,05,07,49,32.70
2010,10,05,07,50,26.00
2010,10,05,07,51,25.80
2010,10,05,07,52,39.60
2010,10,05,07,53,31.80
2010,10,05,07,54,28.70
2010,10,05,07,55,42.00
2010,10,05,07,56,42.00
2010,10,05,07,57,41.60
2010,10,05,07,58,34.70
2010,10,05,07,59,30.40
2010,10,05,08,00,37.10
2010,10,05,08,01,38.60
2010,10,05,08,02,31.70
2010,10,05,08,03,26.10
2010,10,05,08,04,28.10
2010,10,05,08,05,30.00
2010,10,05,08,06,30.20
2010,10,05,08,07,33.20
2010,10,05,08,08,37.00
2010,10,05,08,09,37.00
2010,10,05,08,10,37.00
2010,10,05,08,11,36.90
2010,10,05,08,12,35.40
2010,10,05,08,13,42.10
2010,10,05,08,14,44.20
2010,10,05,08,15,46.80
2010,10,05,08,16,43.70
2010,10,05,08,17,39.00
2010,10,05,08,18,39.00
2010,10,05,08,19,39.00
2010,10,05,08,20,40.30
2010,10,05,08,21,46.20
2010,10,05,08,22,48.90
2010,10,05,08,23,47.60
2010,10,05,08,24,58.40
2010,10,05,08,25,64.20
2010,10,05,08,26,48.90
2010,10,05,08,27,47.50
2010,10,05,08,28,56.00
2010,10,05,08,29,69.20
2010,10,05,08,30,74.00
2010,10,05,08,31,73.70
2010,10,05,08,32,66.90
2010,10,05,08,33,64.60
2010,10,05,08,34,57.50
2010,10,05,08,35,49.10
2010,10,05,08,36,52.70
2010,10,05,08,37,86.90
2010,10,05,08,38,139.20
2010,10,05,08,39,141.70
2010,10,05,08,40,135.90
2010,10,05,08,41,112.40
2010,10,05,08,42,83.70
2010,10,05,08,43,77.90
2010,10,05,08,44,96.80
2010,10,05,08,45,131.30
2010,10,05,08,46,156.00
2010,10,05,08,47,157.50
2010,10,05,08,48,186.50
2010,10,05,08,49,193.40
2010,10,05,08,50,163.10
2010,10,05,08,51,166.50
2010,10,05,08,52,190.60
2010,10,05,08,53,147.60
2010,10,05,08,54,177.80
2010,10,05,08,55,175.10
2010,10,05,08,56,197.60
2010,10,05,08,57,208.90
2010,10,05,08,58,207.10
2010,10,05,08,59,209.10
2010,10,05,09,00,211.10
2010,10,05,09,01,213.00
2010,10,05,09,02,213.10
2010,10,05,09,03,214.00
2010,10,05,09,04,216.10
2010,10,05,09,05,218.10
2010,10,05,09,06,220.10
2010,10,05,09,07,221.10
2010,10,05,09,08,223.10
2010,10,05,09,09,225.10
2010,10,05,09,10,227.10
2010,10,05,09,11,230.00
2010,10,05,09,12,232.10
2010,10,05,09,13,234.10
2010,10,05,09,14,236.00
2010,10,05,09,15,239.10
2010,10,05,09,16,241.00
2010,10,05,09,17,241.20
2010,10,05,09,18,246.00
2010,10,05,09,19,248.10
2010,10,05,09,20,250.20
2010,10,05,09,21,253.00
2010,10,05,09,22,253.30
2010,10,05,09,23,258.10
2010,10,05,09,24,260.10
2010,10,05,09,25,262.10
2010,10,05,09,26,264.20
2010,10,05,09,27,267.10
2010,10,05,09,28,269.10
2010,10,05,09,29,271.00
2010,10,05,09,30,271.00
2010,10,05,09,31,276.10
2010,10,05,09,32,278.10
2010,10,05,09,33,279.10
2010,10,05,09,34,281.20
2010,10,05,09,35,285.10
2010,10,05,09,36,287.00
2010,10,05,09,37,288.00
2010,10,05,09,38,288.20
2010,10,05,09,39,292.00
2010,10,05,09,40,294.10
2010,10,05,09,41,297.00
2010,10,05,09,42,299.10
2010,10,05,09,43,302.10
2010,10,05,09,44,304.00
2010,10,05,09,45,306.10
2010,10,05,09,46,308.10
2010,10,05,09,47,309.00
2010,10,05,09,48,315.00
2010,10,05,09,49,315.00
2010,10,05,09,50,318.10
2010,10,05,09,51,320.10
2010,10,05,09,52,322.20
2010,10,05,09,53,325.10
2010,10,05,09,54,327.00
2010,10,05,09,55,329.10
2010,10,05,09,56,332.00
2010,10,05,09,57,334.20
2010,10,05,09,58,338.10
2010,10,05,09,59,339.20
2010,10,05,10,00,343.10
2010,10,05,10,01,345.00
2010,10,05,10,02,348.10
2010,10,05,10,03,350.10
2010,10,05,10,04,353.10
2010,10,05,10,05,355.20
2010,10,05,10,06,359.10
2010,10,05,10,07,360.10
2010,10,05,10,08,362.10
2010,10,05,10,09,364.10
2010,10,05,10,10,366.00
2010,10,05,10,11,369.10
2010,10,05,10,12,371.00
2010,10,05,10,13,371.20
2010,10,05,10,14,376.20
2010,10,05,10,15,380.00
2010,10,05,10,16,381.00
2010,10,05,10,17,385.10
2010,10,05,10,18,387.20
2010,10,05,10,19,390.10
2010,10,05,10,20,392.30
2010,10,05,10,21,397.10
2010,10,05,10,22,399.10
2010,10,05,10,23,401.30
2010,10,05,10,24,406.20
2010,10,05,10,25,410.20
2010,10,05,10,26,413.30
2010,10,05,10,27,418.20
2010,10,05,10,28,422.10
2010,10,05,10,29,424.00
2010,10,05,10,30,425.20
2010,10,05,10,31,429.10
2010,10,05,10,32,431.30
2010,10,05,10,33,436.10
2010,10,05,10,34,439.10
2010,10,05,10,35,441.20
2010,10,05,10,36,445.10
2010,10,05,10,37,448.20
2010,10,05,10,38,452.10
2010,10,05,10,39,454.00
2010,10,05,10,40,455.20
2010,10,05,10,41,459.10
2010,10,05,10,42,461.00
2010,10,05,10,43,462.10
2010,10,05,10,44,464.10
2010,10,05,10,45,466.10
2010,10,05,10,46,468.10
2010,10,05,10,47,469.10
2010,10,05,10,48,471.00
2010,10,05,10,49,471.20
2010,10,05,10,50,475.00
2010,10,05,10,51,476.10
2010,10,05,10,52,478.10
2010,10,05,10,53,480.00
2010,10,05,10,54,480.30
2010,10,05,10,55,484.90
2010,10,05,10,56,483.30
2010,10,05,10,57,489.00
2010,10,05,10,58,489.00
2010,10,05,10,59,490.10
2010,10,05,11,00,492.00
2010,10,05,11,01,492.20
2010,10,05,11,02,497.10
2010,10,05,11,03,499.00
2010,10,05,11,04,499.10
2010,10,05,11,05,501.00
2010,10,05,11,06,504.00
2010,10,05,11,07,504.20
2010,10,05,11,08,508.00
2010,10,05,11,09,508.10
2010,10,05,11,10,510.10
2010,10,05,11,11,512.10
2010,10,05,11,12,513.00
2010,10,05,11,13,513.10
2010,10,05,11,14,515.00
2010,10,05,11,15,515.10
2010,10,05,11,16,517.10
2010,10,05,11,17,519.00
2010,10,05,11,18,520.00
2010,10,05,11,19,520.10
2010,10,05,11,20,522.00
2010,10,05,11,21,522.10
2010,10,05,11,22,524.10
2010,10,05,11,23,526.10
2010,10,05,11,24,527.10
2010,10,05,11,25,529.10
2010,10,05,11,26,531.10
2010,10,05,11,27,533.00
2010,10,05,11,28,533.00
2010,10,05,11,29,533.20
2010,10,05,11,30,536.00
2010,10,05,11,31,536.10
2010,10,05,11,32,538.10
2010,10,05,11,33,540.00
2010,10,05,11,34,540.00
2010,10,05,11,35,541.10
2010,10,05,11,36,543.20
2010,10,05,11,37,547.00
2010,10,05,11,38,547.10
2010,10,05,11,39,548.10
2010,10,05,11,40,550.10
2010,10,05,11,41,552.00
2010,10,05,11,42,552.10
2010,10,05,11,43,554.00
2010,10,05,11,44,554.00
2010,10,05,11,45,554.00
2010,10,05,11,46,555.00
2010,10,05,11,47,555.10
2010,10,05,11,48,557.00
2010,10,05,11,49,557.10
2010,10,05,11,50,559.10
2010,10,05,11,51,561.00
2010,10,05,11,52,561.10
2010,10,05,11,53,563.00
2010,10,05,11,54,563.00
2010,10,05,11,55,563.00
2010,10,05,11,56,564.00
2010,10,05,11,57,564.10
2010,10,05,11,58,566.10
2010,10,05,11,59,568.00
2010,10,05,12,00,568.10
2010,10,05,12,01,570.00
2010,10,05,12,02,570.00
2010,10,05,12,03,570.20
2010,10,05,12,04,573.00
2010,10,05,12,05,573.10
2010,10,05,12,06,575.00
2010,10,05,12,07,575.10
2010,10,05,12,08,577.00
2010,10,05,12,09,578.00
2010,10,05,12,10,578.00
2010,10,05,12,11,578.10
2010,10,05,12,12,580.00
2010,10,05,12,13,580.00
2010,10,05,12,14,580.10
2010,10,05,12,15,582.10
2010,10,05,12,16,584.00
2010,10,05,12,17,584.00
2010,10,05,12,18,584.00
2010,10,05,12,19,584.10
2010,10,05,12,20,585.00
2010,10,05,12,21,585.00
2010,10,05,12,22,585.10
2010,10,05,12,23,587.00
2010,10,05,12,24,587.10
2010,10,05,12,25,589.00
2010,10,05,12,26,589.10
2010,10,05,12,27,590.90
2010,10,05,12,28,589.10
2010,10,05,12,29,591.00
2010,10,05,12,30,591.10
2010,10,05,12,31,592.00
2010,10,05,12,32,592.00
2010,10,05,12,33,592.00
2010,10,05,12,34,592.10
2010,10,05,12,35,594.00
2010,10,05,12,36,594.00
2010,10,05,12,37,594.00
2010,10,05,12,38,594.10
2010,10,05,12,39,596.00
2010,10,05,12,40,596.00
2010,10,05,12,41,596.00
2010,10,05,12,42,596.00
2010,10,05,12,43,596.10
2010,10,05,12,44,598.00
2010,10,05,12,45,599.00
2010,10,05,12,46,599.00
2010,10,05,12,47,598.00
2010,10,05,12,48,598.00
2010,10,05,12,49,598.00
2010,10,05,12,50,598.00
2010,10,05,12,51,598.10
2010,10,05,12,52,599.00
2010,10,05,12,53,599.00
2010,10,05,12,54,598.00
2010,10,05,12,55,598.00
2010,10,05,12,56,599.00
2010,10,05,12,57,599.10
2010,10,05,12,58,600.90
2010,10,05,12,59,599.00
2010,10,05,13,00,599.00
2010,10,05,13,01,599.10
2010,10,05,13,02,600.90
2010,10,05,13,03,599.00
2010,10,05,13,04,599.00
2010,10,05,13,05,599.00
2010,10,05,13,06,599.10
2010,10,05,13,07,601.00
2010,10,05,13,08,601.00
2010,10,05,13,09,601.00
2010,10,05,13,10,601.00
2010,10,05,13,11,601.00
2010,10,05,13,12,601.00
2010,10,05,13,13,601.00
2010,10,05,13,14,601.00
2010,10,05,13,15,601.00
2010,10,05,13,16,601.00
2010,10,05,13,17,600.90
2010,10,05,13,18,599.00
2010,10,05,13,19,599.00
2010,10,05,13,20,599.00
2010,10,05,13,21,598.00
2010,10,05,13,22,599.00
2010,10,05,13,23,598.00
2010,10,05,13,24,598.10
2010,10,05,13,25,599.00
2010,10,05,13,26,598.10
2010,10,05,13,27,599.00
2010,10,05,13,28,597.90
2010,10,05,13,29,596.00
2010,10,05,13,30,596.00
2010,10,05,13,31,596.00
2010,10,05,13,32,596.00
2010,10,05,13,33,595.90
2010,10,05,13,34,594.00
2010,10,05,13,35,593.90
2010,10,05,13,36,592.00
2010,10,05,13,37,592.00
2010,10,05,13,38,592.00
2010,10,05,13,39,592.00
2010,10,05,13,40,592.00
2010,10,05,13,41,592.00
2010,10,05,13,42,591.20
2010,10,05,13,43,593.80
2010,10,05,13,44,591.00
2010,10,05,13,45,590.90
2010,10,05,13,46,588.90
2010,10,05,13,47,587.10
2010,10,05,13,48,589.00
2010,10,05,13,49,588.90
2010,10,05,13,50,586.90
2010,10,05,13,51,585.10
2010,10,05,13,52,587.00
2010,10,05,13,53,587.00
2010,10,05,13,54,586.80
2010,10,05,13,55,584.00
2010,10,05,13,56,584.00
2010,10,05,13,57,583.90
2010,10,05,13,58,582.00
2010,10,05,13,59,581.90
2010,10,05,14,00,580.00
2010,10,05,14,01,579.90
2010,10,05,14,02,578.10
2010,10,05,14,03,579.80
2010,10,05,14,04,577.00
2010,10,05,14,05,576.90
2010,10,05,14,06,575.00
2010,10,05,14,07,575.00
2010,10,05,14,08,575.00
2010,10,05,14,09,574.90
2010,10,05,14,10,572.90
2010,10,05,14,11,571.00
2010,10,05,14,12,571.00
2010,10,05,14,13,570.00
2010,10,05,14,14,569.90
2010,10,05,14,15,568.00
2010,10,05,14,16,567.90
2010,10,05,14,17,565.90
2010,10,05,14,18,564.00
2010,10,05,14,19,563.80
2010,10,05,14,20,561.10
2010,10,05,14,21,563.00
2010,10,05,14,22,562.80
2010,10,05,14,23,559.00
2010,10,05,14,24,559.00
2010,10,05,14,25,558.90
2010,10,05,14,26,557.00
2010,10,05,14,27,557.00
2010,10,05,14,28,556.80
2010,10,05,14,29,553.90
2010,10,05,14,30,551.90
2010,10,05,14,31,550.00
2010,10,05,14,32,549.90
2010,10,05,14,33,548.00
2010,10,05,14,34,548.00
2010,10,05,14,35,546.90
2010,10,05,14,36,545.00
2010,10,05,14,37,545.00
2010,10,05,14,38,544.80
2010,10,05,14,39,540.90
2010,10,05,14,40,540.00
2010,10,05,14,41,539.90
2010,10,05,14,42,538.00
2010,10,05,14,43,537.80
2010,10,05,14,44,534.00
2010,10,05,14,45,533.90
2010,10,05,14,46,532.90
2010,10,05,14,47,530.90
2010,10,05,14,48,528.90
2010,10,05,14,49,527.00
2010,10,05,14,50,527.00
2010,10,05,14,51,525.90
2010,10,05,14,52,523.80
2010,10,05,14,53,520.00
2010,10,05,14,54,520.00
2010,10,05,14,55,518.90
2010,10,05,14,56,517.00
2010,10,05,14,57,514.90
2010,10,05,14,58,513.00
2010,10,05,14,59,513.00
2010,10,05,15,00,511.90
2010,10,05,15,01,509.90
2010,10,05,15,02,507.90
2010,10,05,15,03,506.00
2010,10,05,15,04,505.80
2010,10,05,15,05,502.90
2010,10,05,15,06,500.90
2010,10,05,15,07,499.00
2010,10,05,15,08,498.80
2010,10,05,15,09,495.90
2010,10,05,15,10,494.00
2010,10,05,15,11,493.80
2010,10,05,15,12,490.00
2010,10,05,15,13,489.00
2010,10,05,15,14,488.90
2010,10,05,15,15,486.80
2010,10,05,15,16,482.90
2010,10,05,15,17,481.90
2010,10,05,15,18,480.00
2010,10,05,15,19,479.80
2010,10,05,15,20,475.90
2010,10,05,15,21,474.90
2010,10,05,15,22,472.80
2010,10,05,15,23,469.00
2010,10,05,15,24,469.00
2010,10,05,15,25,467.90
2010,10,05,15,26,465.80
2010,10,05,15,27,462.00
2010,10,05,15,28,462.00
2010,10,05,15,29,461.90
2010,10,05,15,30,458.90
2010,10,05,15,31,456.90
2010,10,05,15,32,455.00
2010,10,05,15,33,454.80
2010,10,05,15,34,451.90
2010,10,05,15,35,449.90
2010,10,05,15,36,448.00
2010,10,05,15,37,447.90
2010,10,05,15,38,444.90
2010,10,05,15,39,443.00
2010,10,05,15,40,442.90
2010,10,05,15,41,440.80
2010,10,05,15,42,437.90
2010,10,05,15,43,435.90
2010,10,05,15,44,432.60
2010,10,05,15,45,406.80
2010,10,05,15,46,384.80
2010,10,05,15,47,418.50
2010,10,05,15,48,425.00
2010,10,05,15,49,384.10
2010,10,05,15,50,332.50
2010,10,05,15,51,381.50
2010,10,05,15,52,410.30
2010,10,05,15,53,414.90
2010,10,05,15,54,412.70
2010,10,05,15,55,407.50
2010,10,05,15,56,398.30
2010,10,05,15,57,385.90
2010,10,05,15,58,403.00
2010,10,05,15,59,402.90
2010,10,05,16,00,400.90
2010,10,05,16,01,398.90
2010,10,05,16,02,396.90
2010,10,05,16,03,393.90
2010,10,05,16,04,391.90
2010,10,05,16,05,389.80
2010,10,05,16,06,386.90
2010,10,05,16,07,384.90
2010,10,05,16,08,383.00
2010,10,05,16,09,382.80
2010,10,05,16,10,379.80
2010,10,05,16,11,375.90
2010,10,05,16,12,374.00
2010,10,05,16,13,372.90
2010,10,05,16,14,370.90
2010,10,05,16,15,368.90
2010,10,05,16,16,367.00
2010,10,05,16,17,365.80
2010,10,05,16,18,361.40
2010,10,05,16,19,349.80
2010,10,05,16,20,345.40
2010,10,05,16,21,334.00
2010,10,05,16,22,334.00
2010,10,05,16,23,333.80
2010,10,05,16,24,328.30
2010,10,05,16,25,315.00
2010,10,05,16,26,316.60
2010,10,05,16,27,327.70
2010,10,05,16,28,340.80
2010,10,05,16,29,337.90
2010,10,05,16,30,335.80
2010,10,05,16,31,331.90
2010,10,05,16,32,329.90
2010,10,05,16,33,326.90
2010,10,05,16,34,324.80
2010,10,05,16,35,322.00
2010,10,05,16,36,317.90
2010,10,05,16,37,316.00
2010,10,05,16,38,314.80
2010,10,05,16,39,310.90
2010,10,05,16,40,308.90
2010,10,05,16,41,305.90
2010,10,05,16,42,303.90
2010,10,05,16,43,301.90
2010,10,05,16,44,298.90
2010,10,05,16,45,296.90
2010,10,05,16,46,293.90
2010,10,05,16,47,291.90
2010,10,05,16,48,289.90
2010,10,05,16,49,287.90
2010,10,05,16,50,284.90
2010,10,05,16,51,282.80
2010,10,05,16,52,278.90
2010,10,05,16,53,277.90
2010,10,05,16,54,275.90
2010,10,05,16,55,273.80
2010,10,05,16,56,270.90
2010,10,05,16,57,268.90
2010,10,05,16,58,266.80
2010,10,05,16,59,260.80
2010,10,05,17,00,239.00
2010,10,05,17,01,239.00
2010,10,05,17,02,238.90
2010,10,05,17,03,236.00
2010,10,05,17,04,235.80
2010,10,05,17,05,231.60
2010,10,05,17,06,222.20
2010,10,05,17,07,205.70
2010,10,05,17,08,180.10
2010,10,05,17,09,161.90
2010,10,05,17,10,141.40
2010,10,05,17,11,129.30
2010,10,05,17,12,115.20
2010,10,05,17,13,99.20
2010,10,05,17,14,83.80
2010,10,05,17,15,80.70
2010,10,05,17,16,75.60